Wind_Speed
125 115 106 98 92 83 81 67 72 77 79 80 81 80 74 74 76 79 78 74 73 70 67 67 70 70 72 72 72 72 72 72 74 75 74 75 76 77
130 127 119 110 100 95 100 83 72 74 77 84 82 81 78 77 75 80 79 78 72 68 68 68 71 73 75 75 74 72 74 75 77 80 80 80 79 79
134 132 127 123 116 106 97 96 94 91 87 88 86 85 76 73 74 79 75 74 72 71 72 73 70 70 70 73 76 81 81 81 83 82 80 82 81 80
142 134 133 129 122 120 115 111 105 94 94 97 94 87 80 77 77 81 78 79 79 77 81 77 75 73 72 76 77 82 82 78 80 79 79 80 79 81
145 139 135 133 126 122 119 114 112 109 98 95 95 89 84 86 82 86 85 86 87 87 83 76 75 76 74 73 74 75 75 77 78 77 78 80 78 79
149 146 136 136 130 126 122 119 119 113 108 104 96 90 88 87 86 89 92 92 91 90 85 80 78 77 78 79 79 79 79 82 83 82 82 84 84 84
152 147 149 132 133 131 127 123 121 117 114 109 104 103 100 97 92 93 93 90 88 87 82 82 82 81 80 81 82 85 85 84 85 84 86 88 87 86
150 149 152 137 136 133 130 127 125 119 115 112 106 102 100 100 102 99 99 94 93 93 92 90 87 86 89 90 90 87 87 85 83 88 89 88 90 91
147 149 150 147 143 136 132 129 127 123 118 118 113 103 101 102 105 100 94 93 91 90 89 88 85 87 90 90 89 88 88 89 91 92 91 91 94 96
145 146 148 150 147 141 134 132 129 125 123 116 112 106 102 104 105 101 100 97 93 89 89 88 89 91 91 93 92 91 93 93 94 94 95 97 97 97
144 146 146 148 150 144 134 134 130 130 122 117 115 110 107 108 107 108 100 99 96 94 94 93 94 95 95 94 94 95 96 97 97 97 99 99 101 104
136 142 146 146 145 147 139 135 136 130 124 121 116 112 109 108 108 108 104 102 102 99 97 98 99 99 97 97 99 100 100 100 100 101 105 107 105 104
128 134 141 145 144 142 140 137 137 130 127 124 122 118 115 111 110 110 108 106 104 101 100 102 100 100 98 101 101 103 104 104 105 108 105 105 105 111
119 125 131 138 141 139 138 136 130 132 131 128 127 123 118 114 113 111 109 109 108 104 103 102 101 102 103 103 103 105 105 108 109 110 106 109 112 112
114 119 124 129 131 134 135 128 130 135 131 131 128 122 118 117 114 113 114 112 109 106 104 104 103 103 103 104 102 104 108 110 110 110 112 112 116 115
109 116 118 122 125 127 129 128 127 131 131 127 125 124 120 117 115 114 114 112 111 108 107 106 104 104 105 102 103 105 109 106 108 110 111 112 115 120
95 106 115 116 119 124 125 124 127 128 124 123 125 122 119 115 114 113 114 115 113 112 109 108 107 106 103 103 108 106 108 108 111 111 114 115 118 116
81 91 102 112 116 117 119 123 126 124 124 123 117 117 115 115 115 113 112 115 114 112 113 109 106 107 108 106 109 108 110 110 113 112 116 118 116 118
71 78 88 97 108 112 114 118 125 119 122 120 113 115 117 115 114 109 117 113 113 115 111 110 113 110 111 111 112 109 113 109 114 116 114 115 108 104
61 68 76 86 95 104 112 115 114 113 115 108 111 113 119 119 115 114 118 116 117 116 115 114 114 116 113 116 112 110 111 113 115 114 109 106 100 102
53 59 67 74 83 91 101 104 105 103 100 102 102 109 112 113 109 109 112 115 115 114 115 116 118 118 117 116 113 115 116 114 109 105 99 92 96 103
47 51 57 63 71 80 87 92 95 96 96 93 95 106 109 111 113 118 114 112 117 121 119 122 117 116 119 122 120 115 113 107 107 91 91 87 94 98
42 45 50 57 64 70 76 80 85 89 94 95 98 100 106 114 114 114 116 116 118 122 121 119 116 116 109 110 108 111 105 104 94 87 83 92 95 101
Wind_Direction
226 221 224 225 228 230 233 236 239 238 239 241 243 243 245 246 251 254 253 252 253 255 265 272 271 271 268 268 270 271 271 274 276 278 280 283 285 286
224 226 223 225 225 227 232 235 234 241 240 245 243 241 247 249 252 252 252 250 250 260 268 270 269 270 269 269 268 269 271 273 277 281 283 284 285 286
225 226 222 229 228 224 228 232 237 241 244 244 246 247 248 248 249 248 245 247 254 264 269 270 271 271 272 272 270 272 275 277 279 282 283 284 286 286
222 226 227 229 230 229 231 231 234 239 240 241 247 247 247 248 249 245 245 251 258 264 268 269 268 269 271 273 273 274 278 280 282 284 284 284 285 286
222 222 227 229 230 230 231 234 236 237 238 240 244 247 247 247 246 247 251 255 259 263 266 267 270 270 271 272 274 276 279 282 282 283 285 286 287 288
223 222 224 227 229 231 231 232 235 237 239 236 237 242 245 246 248 249 252 256 258 262 264 267 269 271 273 276 277 279 281 283 281 284 287 289 291 294
222 224 222 224 228 230 231 231 235 236 237 240 241 243 246 245 246 247 249 253 257 260 260 262 266 271 272 272 276 278 282 285 286 287 287 289 289 289
222 223 225 224 226 229 231 232 234 236 237 237 238 241 246 250 251 251 253 256 258 259 261 263 266 268 269 271 273 275 276 281 278 278 281 283 282 282
223 223 226 224 227 227 229 231 233 235 237 238 239 241 244 247 250 251 253 256 258 260 263 266 268 269 271 272 273 276 278 280 281 282 282 282 280 280
224 225 226 225 225 229 229 231 232 234 236 239 241 239 242 247 250 252 252 254 257 259 261 264 266 267 269 272 274 276 277 279 280 281 283 283 284 284
223 225 227 226 225 225 231 232 233 233 234 237 239 240 241 244 248 251 253 256 257 259 260 261 265 267 269 272 274 276 277 278 280 281 284 284 284 284
223 224 226 228 228 227 225 232 234 234 236 236 238 240 242 244 248 252 254 256 257 258 261 263 264 267 269 272 274 276 278 279 280 281 282 283 285 287
222 223 224 227 230 229 227 229 233 234 235 237 237 239 240 243 246 250 253 255 257 258 259 261 264 268 270 272 274 276 277 279 281 281 283 284 286 286
224 224 223 224 228 231 230 230 232 235 235 236 239 239 240 242 245 248 252 254 256 258 260 263 266 268 269 271 273 275 278 279 280 282 285 285 286 289
224 224 224 224 224 228 232 231 231 235 236 236 238 240 242 243 245 247 250 253 256 259 261 262 264 266 269 270 273 275 276 279 281 282 283 287 289 291
223 223 224 224 223 225 227 230 232 234 236 237 238 240 241 243 245 247 251 254 257 259 261 262 266 268 270 273 273 275 275 279 282 284 285 287 289 291
223 222 223 223 223 223 224 225 230 232 234 236 237 239 241 243 246 249 251 254 257 259 262 263 266 270 270 272 271 274 276 280 280 284 285 289 291 292
222 221 221 221 222 223 223 224 226 229 232 234 235 238 241 243 246 249 252 254 256 259 260 264 268 268 269 271 272 275 277 280 281 285 287 290 290 293
220 220 219 220 221 221 222 224 225 225 229 232 235 239 242 243 246 248 249 253 256 258 262 263 265 267 269 270 272 275 277 281 282 285 289 289 293 291
219 218 218 218 218 219 221 223 224 225 226 228 232 237 240 242 245 246 250 254 256 258 261 262 264 266 268 270 274 276 278 282 283 284 288 290 288 289
215 216 215 216 216 217 221 222 223 224 225 225 229 235 239 240 243 246 250 252 254 256 258 260 261 264 269 271 274 277 279 280 282 285 289 290 290 291
210 211 212 213 213 214 217 219 220 221 222 223 226 233 238 242 243 245 247 250 253 255 258 260 262 265 268 271 273 273 275 280 283 289 287 288 288 291
203 204 206 206 207 209 212 215 216 216 219 220 223 228 232 238 240 242 246 250 252 255 259 261 264 265 267 268 273 274 278 281 287 284 284 292 290 288
Height
10480 10500 10513 10527 10536 10546 10545 10553 10560 10572 10582 10587 10595 10602 10611 10620 10625 10632 10636 10640 10645 10649 10653 10655 10657 10660 10662 10663 10663 10662 10662 10662 10661 10660 10661 10661 10660 10658
10458 10472 10489 10505 10517 10523 10533 10541 10550 10551 10561 10568 10577 10586 10597 10607 10613 10617 10620 10623 10629 10633 10636 10640 10642 10644 10646 10649 10649 10648 10647 10648 10647 10645 10645 10645 10645 10643
10429 10446 10465 10478 10493 10504 10513 10525 10534 10541 10546 10548 10560 10572 10581 10591 10598 10602 10604 10609 10613 10616 10619 10623 10627 10628 10631 10632 10633 10631 10633 10633 10632 10632 10630 10628 10626 10624
10399 10421 10438 10451 10465 10481 10493 10506 10516 10523 10532 10536 10538 10554 10566 10572 10580 10588 10592 10596 10598 10600 10604 10607 10611 10614 10615 10616 10616 10616 10615 10616 10615 10615 10614 10612 10610 10607
10372 10389 10411 10424 10441 10457 10471 10482 10492 10502 10512 10519 10528 10537 10548 10558 10564 10571 10576 10581 10583 10584 10588 10591 10594 10596 10598 10599 10600 10600 10598 10598 10598 10598 10596 10595 10593 10589
10345 10363 10382 10399 10420 10433 10448 10460 10464 10479 10491 10503 10515 10519 10529 10540 10548 10554 10559 10561 10563 10568 10572 10575 10577 10578 10580 10581 10581 10581 10580 10581 10581 10580 10577 10575 10573 10570
10319 10339 10352 10377 10391 10406 10421 10435 10445 10455 10468 10483 10498 10505 10511 10520 10530 10529 10534 10541 10548 10552 10554 10557 10559 10565 10565 10564 10563 10563 10564 10562 10561 10560 10559 10557 10554 10553
10290 10311 10326 10353 10366 10380 10395 10411 10423 10436 10448 10462 10477 10491 10495 10497 10500 10510 10513 10522 10531 10529 10533 10540 10546 10548 10547 10545 10545 10547 10550 10550 10549 10547 10544 10543 10540 10537
10262 10282 10299 10325 10336 10357 10369 10383 10398 10415 10426 10438 10454 10476 10475 10478 10475 10486 10498 10504 10511 10511 10517 10523 10528 10527 10524 10526 10527 10530 10530 10529 10529 10529 10528 10526 10523 10519
10235 10253 10272 10292 10311 10329 10348 10357 10373 10390 10404 10424 10439 10453 10459 10454 10459 10469 10473 10484 10495 10501 10502 10506 10504 10505 10505 10507 10510 10511 10510 10509 10509 10507 10506 10503 10500 10497
10207 10226 10242 10260 10285 10305 10323 10336 10352 10363 10383 10398 10412 10424 10434 10438 10441 10440 10460 10467 10476 10481 10483 10486 10485 10485 10486 10491 10493 10491 10490 10490 10489 10487 10484 10480 10477 10475
10181 10200 10217 10235 10255 10274 10297 10310 10321 10346 10363 10377 10390 10402 10412 10418 10424 10428 10438 10447 10454 10460 10466 10465 10465 10467 10473 10474 10471 10468 10469 10469 10468 10466 10462 10458 10456 10453
10153 10172 10193 10209 10225 10245 10267 10285 10300 10327 10337 10347 10361 10373 10386 10398 10407 10410 10419 10425 10430 10438 10444 10443 10448 10450 10453 10452 10450 10449 10448 10447 10445 10440 10438 10437 10434 10428
10128 10146 10166 10186 10204 10220 10239 10264 10288 10295 10308 10322 10332 10351 10369 10381 10388 10394 10402 10404 10408 10416 10422 10428 10430 10430 10431 10432 10432 10427 10427 10425 10421 10417 10416 10414 10408 10404
10103 10120 10139 10160 10182 10200 10216 10242 10260 10265 10281 10296 10313 10332 10349 10358 10367 10376 10379 10385 10391 10398 10403 10406 10408 10409 10411 10413 10414 10410 10405 10403 10400 10395 10393 10389 10383 10376
10075 10093 10112 10134 10160 10177 10195 10214 10226 10238 10258 10279 10297 10307 10321 10334 10345 10355 10362 10366 10371 10376 10382 10383 10386 10388 10389 10392 10390 10389 10383 10384 10379 10375 10372 10366 10359 10350
10049 10068 10087 10109 10132 10150 10169 10190 10202 10214 10235 10254 10265 10286 10303 10314 10325 10336 10341 10345 10350 10355 10358 10360 10364 10369 10370 10370 10365 10365 10363 10363 10357 10355 10349 10342 10335 10326
10030 10046 10064 10083 10103 10124 10146 10163 10174 10194 10213 10228 10249 10268 10283 10293 10302 10313 10320 10321 10327 10331 10333 10339 10343 10346 10347 10345 10343 10342 10342 10340 10336 10333 10325 10321 10310 10304
10013 10027 10044 10062 10081 10102 10121 10135 10147 10175 10192 10208 10235 10248 10257 10269 10280 10289 10283 10299 10304 10307 10313 10319 10318 10322 10322 10321 10321 10322 10320 10319 10314 10311 10305 10297 10291 10280
10001 10014 10028 10042 10060 10079 10096 10111 10130 10153 10172 10199 10213 10224 10233 10244 10257 10269 10273 10278 10280 10283 10289 10294 10296 10295 10298 10296 10300 10301 10297 10297 10292 10289 10288 10277 10264 10256
9991 10002 10014 10029 10046 10063 10078 10098 10116 10137 10160 10179 10197 10207 10213 10223 10235 10245 10249 10251 10258 10262 10266 10269 10270 10272 10276 10278 10278 10279 10278 10274 10273 10270 10264 10255 10243 10232
9982 9993 10005 10018 10033 10048 10063 10080 10101 10121 10139 10158 10177 10184 10191 10201 10210 10214 10224 10232 10236 10237 10242 10245 10253 10256 10257 10259 10259 10257 10255 10255 10251 10250 10241 10233 10225 10212
9977 9986 9997 10009 10021 10035 10050 10067 10084 10102 10117 10134 10150 10160 10166 10170 10184 10195 10202 10210 10213 10215 10221 10226 10230 10232 10236 10235 10236 10232 10236 10233 10232 10229 10223 10214 10203 10196